Location: Bismarck
(46.7731°N, 100.8200°W)
Time: 07:22:03
(UTC-06:00)

Daily predictions for brighter satellites

Satellite Brightness Start Highest point End
(mag) Time Altitude Azimuth Time Altitude Azimuth Time Altitude Azimuth
Cosmos 2297 3.8 17:56:33 10° NNW 18:02:12 58° ENE 18:07:50 10° SE
SL-14 R/B 3.6 18:00:26 10° SSE 18:04:16 48° E 18:08:09 10° NNE
Cosmos 2151 3.2 18:00:16 10° SSE 18:04:20 49° E 18:08:24 10° NNE
ALOS 4.1 18:03:42 10° ENE 18:05:04 11° NE 18:06:26 10° NE
USA 215 3.7 17:59:21 10° E 18:05:33 47° NNE 18:11:46 10° NW
Cosmos 1484 Rocket 3.3 18:02:18 10° SE 18:06:00 38° ENE 18:09:45 10° N
Cosmos 1634 Rocket 4.0 17:59:55 10° N 18:06:09 86° E 18:12:19 10° S
IDEFIX/ARIANE 42P 2.7 18:01:02 10° SSE 18:06:16 85° WSW 18:11:34 10° NNW
Cosmos 1707 Rocket 4.4 18:05:18 10° NNE 18:09:07 29° ENE 18:12:54 10° SE
Cosmos 1340 Rocket 3.4 18:07:17 10° SSE 18:10:51 34° E 18:14:27 10° NNE
CZ-2C R/B 2.7 18:07:59 10° S 18:12:53 75° WSW 18:17:39 10° NNW
COSMO-SKYMED 1 3.5 18:09:21 10° NE 18:13:09 28° E 18:16:54 10° SSE
YAOGAN 1 2.6 18:09:33 10° SSE 18:13:54 86° ENE 18:18:15 10° NNW
SMAP 3.4 18:14:49 10° S 18:19:28 74° WSW 18:24:08 10° NNW
COSMOS 2441 4.3 18:15:04 10° SSE 18:19:54 74° ENE 18:24:44 10° N
CORIOLIS 4.3 18:17:01 10° SSE 18:22:22 81° WSW 18:27:46 10° NNW
Cosmos 371 Rocket 4.0 18:19:18 10° SW 18:24:00 55° WNW 18:28:45 10° NNE
Cosmos 2360 Rocket 4.3 18:20:02 10° W 18:24:05 20° NW 18:28:10 10° N
ATLAS 5 CENTAUR R/B 3.7 18:21:36 10° NNW 18:25:38 19° NNE 18:29:30 11° ENE
Lacrosse 4 Rocket 1.9 18:22:06 10° NNW 18:25:55 37° NE 18:29:41 10° ESE
Cosmos 1626 2.9 18:27:03 10° SSE 18:30:22 31° E 18:33:42 10° NNE
Cosmos 1980 4.0 18:25:38 10° SW 18:31:17 71° WNW 18:36:59 10° NNE
Blok-2BL 4.2 18:30:05 10° NNW 18:33:00 28° NE 18:35:13 14° E
CENTAUR R/B 3.7 18:27:05 10° WSW 18:33:03 40° NW 18:39:47 10° NE
Cosmos 1151 Rocket 4.0 18:30:38 10° NNW 18:34:48 50° W 18:38:57 10° S
Resurs 01 Rocket 2.9 18:37:03 10° ESE 18:40:13 19° ENE 18:43:23 10° NNE
Cosmos 1184 Rocket 3.8 18:37:59 10° SSE 18:40:51 27° E 18:43:00 15° NE
Cosmos 1726 3.8 18:37:27 10° NNW 18:40:59 38° W 18:44:30 10° SSW
Cosmos 2058 2.9 18:38:30 10° S 18:42:36 83° W 18:46:44 10° N
Cosmos 1943 Rocket 3.8 18:40:06 10° N 18:43:13 15° NE 18:44:33 14° NE
Cosmos 2219 Rocket 3.4 18:41:12 10° WSW 18:46:27 39° NW 18:51:43 10° NNE
USA 229 DEB 4.2 18:40:34 10° S 18:46:47 38° ESE 18:51:58 15° NE
USA 229 4.3 18:40:41 10° S 18:46:53 38° ESE 18:52:01 15° NE
Meteor 1-11 4.4 18:44:07 10° SSW 18:49:50 81° WNW 18:55:40 10° N
FREGAT/IRIS 3.5 18:47:21 10° SE 18:50:03 28° ENE 18:52:44 10° N
Lacrosse 5 rocket 4.3 18:48:26 10° W 18:50:45 16° SW 18:53:08 10° SSW
Cosmos 2279 Rocket 4.2 18:44:57 10° NNW 18:51:10 75° W 18:57:22 10° S
Iridium 4 Rocket 3.9 18:48:00 10° SE 18:51:40 27° E 18:55:13 10° NNE
Cosmos 1242 Rocket 3.3 18:49:13 10° N 18:52:17 28° ENE 18:55:20 10° SE
Cosmos 1461 2.8 18:48:32 10° SW 18:52:42 88° SE 18:55:55 16° NE
CZ-4C R/B 3.9 18:47:38 10° NNW 18:52:50 24° NNE 18:56:24 17° ENE
Spot 2 Rocket 4.3 18:50:13 10° ESE 18:54:30 29° ENE 18:58:47 10° N
Cosmos 1455 2.1 18:50:55 10° N 18:54:42 63° E 18:58:30 10° SSE
Cosmos 304 Rocket 3.8 18:50:31 10° SSW 18:55:20 85° WNW 19:00:11 10° NNE
Cosmos 1603 4.4 18:51:42 10° SSE 18:56:32 31° ESE 18:59:29 19° ENE
Cosmos 2333 Rocket 3.4 18:52:18 10° SW 18:57:37 41° NW 19:02:58 10° NNE
BREEZE-M DEB (TANK) 1.1 18:56:17 10° WSW 18:58:45 67° SSE 18:59:20 41° E
Aureole 1 Rocket 4.2 18:54:54 10° S 19:00:27 51° ESE 19:07:37 10° NNE
Cosmos 1805 Rocket 3.6 18:56:19 10° S 19:00:47 90° WNW 19:05:16 10° N
SKYMED 2 3.5 18:57:01 10° NNE 19:01:24 88° ESE 19:05:44 10° SSW
Cosmos 1356 Rocket 3.2 18:57:47 10° S 19:01:45 71° E 19:05:45 10° NNE
Cosmos 2242 Rocket 3.6 19:01:37 10° N 19:06:00 57° ENE 19:10:23 10° SSE
Thor Agena Rocket 4.5 19:03:48 10° N 19:08:51 49° WNW 19:13:48 10° SW
Coronas F rocket 2.5 19:06:59 10° S 19:08:11 25° SSE 19:08:11 25° SSE
Sich 1 3.0 19:07:00 10° S 19:11:25 78° E 19:15:52 10° NNE
BREEZE M DEB (TANK) 3.6 19:10:11 10° W 19:12:13 21° SW 19:13:45 12° SSE
Cosmos 1538 Rocket 4.0 19:07:37 10° SSW 19:12:57 90° ESE 19:18:21 10° NNE
Cosmos 1703 3.7 19:09:20 10° SSW 19:13:12 62° W 19:17:05 10° N
Nadezhda 4 Rocket 3.9 19:07:10 10° S 19:13:25 75° E 19:19:45 10° NNE
Cosmos 2026 Rocket 4.5 19:11:41 10° SSE 19:17:09 34° E 19:22:35 10° NNE
Cosmos 923 Rocket 4.1 19:15:46 10° S 19:20:46 50° ESE 19:23:24 26° NE
SJ-6B 2.8 19:16:58 10° SSE 19:21:05 81° ENE 19:25:15 10° NNW
Cosmos 1633 Rocket 3.0 19:18:56 10° S 19:23:20 90° SSW 19:27:46 10° N
Cosmos 2237 Rocket 3.7 19:21:25 10° WSW 19:26:27 33° NW 19:31:32 10° NNE
Cosmos 1680 Rocket 3.8 19:21:51 10° S 19:26:47 44° ESE 19:28:11 36° ENE
Cosmos 2369 Rocket 2.4 19:21:30 10° NNW 19:26:58 46° NE 19:28:56 33° ESE
Cosmos 972 Rocket 4.3 19:22:51 10° N 19:27:56 48° ENE 19:31:23 22° SE
BREEZE-M DEB (TANK) 4.3 19:28:34 10° SSW 19:29:02 15° S 19:29:02 15° S
Lacrosse 5 2.9 19:30:20 10° NW 19:34:50 30° NNE 19:35:34 29° NNE
SL-16 R/B 2.8 19:29:53 10° SW 19:35:25 56° WNW 19:40:39 12° NNE
Cosmos 1867 3.9 19:31:02 10° NNW 19:36:19 45° NE 19:37:08 42° ENE
Cosmos 1092 Rocket 3.9 19:30:33 10° S 19:36:53 82° E 19:43:16 10° N
NOSS 3-1 (C) 4.1 19:32:45 10° S 19:37:29 31° ESE 19:37:29 31° ESE
Abrixas 3.4 19:35:39 10° W 19:37:53 44° WNW 19:37:53 44° WNW
Meteor 1-28 Rocket 4.2 19:35:07 10° N 19:38:41 45° WNW 19:42:15 10° SW
Cosmos 1553 Rocket 4.3 19:32:58 10° N 19:38:46 40° ENE 19:39:22 39° E
ALOS 2.1 19:37:02 10° SSE 19:41:41 77° ENE 19:46:23 10° N
Cosmos 773 Rocket 4.1 19:38:54 10° SSW 19:44:04 74° WNW 19:47:51 19° NNE
Cosmos 1862 Rocket 3.4 19:40:14 10° N 19:44:39 83° E 19:49:00 10° S
BREEZE-M DEB (TANK) 3.1 19:43:19 10° WSW 19:44:55 43° WSW 19:44:55 43° WSW
Cosmos 2084 Rocket 3.2 19:42:29 10° NW 19:45:57 70° N 19:45:57 70° N
ATLAS 3B R/B 3.8 19:40:51 10° NNW 19:46:33 25° NNE 19:47:34 24° NE
USA 215 3.3 19:44:05 24° SE 19:48:18 82° SW 19:54:54 10° NW
COSMO-SKYMED 1 4.3 19:45:27 10° N 19:49:17 31° WNW 19:53:07 10° SW
Cosmos 292 Rocket 3.6 19:47:20 10° SSW 19:52:06 84° ESE 19:53:00 59° NNE
CZ-3A R/B 3.6 19:48:32 10° WNW 19:53:03 48° SW 19:59:15 10° SSE
FENGYUN 3A 3.6 19:49:01 10° SSE 19:54:23 87° WSW 19:59:49 10° NNW
Meteor 1-26 Rocket 4.2 19:51:04 10° N 19:56:33 57° ENE 19:56:33 57° ENE
Cosmos 2195 Rocket 4.3 19:52:53 10° S 19:59:00 80° E 20:05:12 10° N
Cosmos 2112 Rocket 3.8 19:58:22 10° SSW 20:03:35 77° ESE 20:03:43 76° E
Lacrosse 4 Rocket 3.6 20:01:08 10° NW 20:04:27 24° WSW 20:07:44 10° SSW
ATLAS 5 CENTAUR R/B 2.6 20:05:53 10° NNW 20:11:04 51° NNE 20:11:04 51° NNE
Cosmos 1933 Rocket 4.0 20:07:38 10° SSW 20:12:01 61° W 20:12:40 54° NW
Cosmos 1943 3.8 20:06:41 10° S 20:10:29 41° SSE 20:10:29 41° SSE
Resurs 1-3 4.0 20:14:11 61° WNW 20:14:11 61° WNW 20:18:06 10° NNW
Resurs 01 Rocket 2.4 20:12:21 12° S 20:16:20 52° W 20:20:42 10° NNW
Cosmos 1417 Rocket 4.4 20:16:12 10° N 20:22:24 83° W 20:27:19 17° S
CENTAUR R/B 4.4 20:20:40 10° NW 20:25:52 22° N 20:28:09 19° NNE
Cosmos 1943 Rocket 3.0 20:22:34 10° NNW 20:26:06 39° N 20:26:06 39° N
USA 229 DEB 4.2 20:30:47 10° WSW 20:37:32 57° NW 20:39:27 44° N
USA 229 4.1 20:30:52 10° WSW 20:37:37 57° NW 20:39:31 44° N
Cosmos 1655 Rocket 4.2 20:31:58 10° SSW 20:38:20 72° W 20:44:41 10° N
CZ-4C R/B 3.1 20:36:02 10° NW 20:41:36 51° N 20:41:36 51° N
S3M 4.4 20:50:48 10° NNW 20:56:53 60° W 20:56:53 60° W
Cosmos 2369 Rocket 3.7 21:05:53 10° NW 21:10:49 31° WSW 21:10:49 31° WSW
Lacrosse 5 4.2 21:13:21 10° NW 21:14:47 19° NW 21:14:47 19° NW
ATLAS 3B R/B 4.2 21:31:43 10° NW 21:34:50 28° NNW 21:34:50 28° NNW
